To NAV CANADA Home Page Login to a new session Search on AWWS site Feedback and Comments Disclaimer Vers la page française équivalente Tips FAQ What's new on the site To the Forecasts and Observations / NOTAM section To "File a Flight Plan" website Publications and other links Update of the User's profile FIC Telephone Numbers My Weather Data Folder Route Weather Data Regional Weather Data Local Weather Data To the Forecasts and Observations / NOTAM section
Request Generated 12/04/2016 at 22:19:28 UTC . Weather information available at that time is displayed.

METAR/TAF

CHESTERFIELD INLET/NU    

LWIS CYCS 042200Z AUTO 18006KT M05/M07 A2994=
METAR CYCS 042100Z VRB02KT 15SM -SG FEW013 OVC025 M05/M07 A2994 RMK
SC1ST8 SC TR -4.0/-10.7/TR/19 MEDIUM PACK LAST STFD OBS NXT 051300Z
SLP140=
METAR CYCS 042000Z 22003KT 15SM -SG FEW013 OVC025 M04/M07 A2994 RMK
SC1ST8 SC TR SLP143=

CYCS - No TAF is issued for this station

Your time UTC time
Weather data provided by Environment Canada and NAV CANADA